Regional Weather Roundup
Issued by NWS Wakefield, VA

Home | Current Version | Previous Version | Graphics & Text | Print | Product List | Glossary On
Versions: 1 2 3 4 5 6 7 8 9 10 11 12 13 14 15 16 17 18 19 20 21 22 23 24 25 26 27 28 29 30 31 32 33 34 35 36 37 38 39 40 41 42 43 44 45 46 47 48 49 50
071
ASUS41 KAKQ 250714
RWRAKQ

REGIONAL WEATHER ROUNDUP
NATIONAL WEATHER SERVICE WAKEFIELD VA
200 AM EST SAT FEB 25 2017

Note: "fair" indicates few or no clouds below 12,000 feet with no
significant weather and/or obstructions to visibility. * = Denotes
station may not report precipitation (e.g., rain,snow,etc.),
thunder or fog.

VAZ042-051-052>054-056-250800-
NORTHERN VIRGINIA

CITY           SKY/WX    TMP DP  RH WIND       PRES   REMARKS
WASH NATIONAL  MOCLDY    59  57  93 S12       29.78S
DULLES         CLOUDY    62  56  80 S6        29.76S
FORT BELVOIR   CLEAR     59  56  88 SE7       29.77F
QUANTICO       CLEAR     55  54  96 SW8       29.78F
FREDERICKSBRG* PTCLDY    61  58  91 S7        29.77F
STAFFORD*      PTCLDY    60  58  94 S6        29.82S
WARRENTON      CLOUDY    65  56  70 S9        29.76S
CULPEPER*      CLOUDY    64  58  80 S6        29.77S
MANASSAS*        N/A     65  58  78 S12       29.76F
LEESBURG*      MOCLDY    61  59  94 MISG      29.77S
WINCHESTER     PTCLDY    59  52  77 S7        29.71F
FRONT ROYAL*   NOT AVBL
LURAY*         CLOUDY    61  54  77 SW6       29.72F
$$

VAZ048-049-060>072-079>083-250800-
CENTRAL AND SOUTH CENTRAL VIRGINIA

CITY           SKY/WX    TMP DP  RH WIND       PRES   REMARKS
RICHMOND       PTCLDY    58  57  97 S8        29.80F
CHESTERFIELD*  FAIR      59  43  55 S6        29.81F
PETERSBURG*    PTCLDY    57  55  93 CALM      29.81F
HANOVER        PTCLDY    59  55  87 S5        29.81S
TAPPAHANNOCK*  PTCLDY    59  59 100 S3        29.81S
QUINTON*       FAIR      59  59 100 S3        29.80F
CHARLOTTSVILLE CLOUDY    64  55  72 SW8       29.75F
GORDONSVILLE*  CLOUDY    62  58  87 SW3       29.76F
ORANGE*        CLOUDY    63  55  77 CALM      29.77F
LOUISA*        CLOUDY    66  61  82 S8        29.76F
BUMPASS*       NOT AVBL
FARMVILLE*     CLOUDY    64  59  82 S10       29.76F
CREWE*         NOT AVBL
FORT PICKETT*  NOT AVBL
CHASE CITY*    NOT AVBL
CLARKSVILLE*   NOT AVBL
SOUTH HILL*    CLEAR     57  57 100 S6        29.86F
LAWRENCEVILLE* NOT AVBL
EMPORIA*       FOG       50  50 100 CALM      29.83S VSB 3/4
$$

VAZ088>098-250800-
SOUTHEAST VIRGINIA

CITY           SKY/WX    TMP DP  RH WIND       PRES   REMARKS
NORFOLK        CLEAR     57  54  89 S5        29.81S
VIRGINIA BEACH PTCLDY    59  54  83 S3        29.80F
NORFOLK NAVAL  CLEAR     60  56  86 S5        29.83S
WEST POINT*    PTCLDY    60  58  92 SE7       29.82F
SALUDA*        NOT AVBL
NEWPORT NEWS   CLEAR     57  55  93 S3        29.82S
LANGLEY AFB    CLEAR     57  57 100 CALM      29.81S
FORT EUSTIS    CLEAR     58  55  91 S5        29.79F
WILLIAMSBURG*  CLEAR     57  57 100 CALM      29.83S
HR EXEC AP*    NOT AVBL
FRANKLIN*      FOG       53  52  98 CALM      29.83S VSB 1/2
US460-WAKEFLD  CLEAR     53  53 100 CALM      29.81F FOG
$$

VAZ020-022-025-037-045-250800-
WEST CENTRAL AND SOUTHWEST VIRGINIA

CITY           SKY/WX    TMP DP  RH WIND       PRES   REMARKS
STAUNTON*      CLOUDY    58  50  75 CALM      29.75F
WAYNESBORO*    NOT AVBL
HOT SPRINGS VA PTCLDY    54  45  71 CALM      29.80S
LYNCHBURG      MOCLDY    60  53  77 S8        29.77F
DANVILLE       PTCLDY    63  56  78 S8        29.77F
SOUTH BOSTON*  NOT AVBL
MARTINSVILLE   CLOUDY    57  51  80 SE3       29.77F
ROANOKE        CLEAR     60  51  72 SE6       29.76F
BLACKSBURG     CLEAR     55  50  85 NW3       29.80S
DUBLIN*        PTCLDY    54  49  82 W3        29.78R
MARION*        CLEAR     60  50  69 CALM      29.77F
HILLSVILLE*    PTCLDY    58  52  78 S5        29.77S
RICHLANDS*     FAIR      60  47  63 SE6       29.72F
WISE*          CLOUDY    61  46  59 S12       29.71F
ABINGDON*      PTCLDY    63  48  59 CALM      29.72F
$$

MDZ021>025-VAZ099-100-250800-
SOUTHERN MARYLAND AND THE DELMARVA PENINSULA

CITY           SKY/WX    TMP DP  RH WIND       PRES   REMARKS
PATUXENT RIVER PTCLDY    61  58  90 S8        29.80S
BAY BRIDGE APT PTCLDY    59  55  88 S9        29.79F
LEONARDTOWN    PTCLDY    61  55  82 S3        29.81S
DOVER          CLEAR     57  57 100 SE8       29.80F
GEORGETOWN     CLEAR     56  54  93 S6        29.82F
EASTON         CLEAR     61  56  83 S10       29.85R
CAMBRIDGE      MOCLDY    57  55  94 S6        29.81S
SALISBURY      CLEAR     55  55 100 S3        29.82F
OCEAN CITY     CLEAR     55  53  93 VRB5      29.83F
WALLOPS ISLAND CLEAR     53  53 100 S7        29.82F
ACCOMACK*      PTCLDY    57  55  92 S6        29.82F
$$

NCZ012>017-030>032-250800-
NORTH CENTRAL AND EASTERN NORTH CAROLINA

CITY           SKY/WX    TMP DP  RH WIND       PRES   REMARKS
ROANOKE RAPIDS FAIR      55  55 100 CALM      29.82S
RALEIGH        PTCLDY    62  57  83 S7        29.80F
ELIZABETH CITY CLEAR     53  52  96 CALM      29.81F FOG
AHOSKIE*         N/A     51  51  98 CALM      29.83S
EDENTON*       PTCLDY    54  52  93 CALM      29.83S
CURRITUCK*     CLEAR     56  56 100 CALM      29.82S
KILL DEVIL HLS NOT AVBL
MANTEO         CLEAR     55  55  99 CALM      29.81F
CAPE HATTERAS  CLEAR     59  55  87 NE3       29.79F FOG
TARBORO*       NOT AVBL
GOLDSBORO      FOG       55  55 100 E3        29.79F VSB 1/2
WASHINGTON     CLEAR     52  51  97 CALM      29.82S
GREENVILLE     FOG       52  52 100 CALM      29.85S VSB 1/2
NEW BERN       FOG       52  52 100 CALM      29.82F VSB 3/4
WILMINGTON     PTCLDY    54  53  97 CALM      29.82F
$$

VAZ048-250800-
ELSEWHERE

CITY           SKY/WX    TMP DP  RH WIND       PRES   REMARKS
HARRISBURG PA  PTCLDY    58  57  97 SE7       29.74F
BALTIMORE      PTCLDY    53  53 100 SE5       29.78S
ANNAPOLIS      MOCLDY    55  53  93 S8        29.79S
ANDREWS AFB    CLEAR     60  57  88 S12       29.77S
PHILADELPHIA   MOCLDY    58  54  86 S8        29.82F
HENDERSON NC   CLEAR     58  54  88 S5        29.80F
GREENSBORO     CLOUDY    63  56  78 S13       29.77F
ROCKY MOUNT    CLEAR     55  55 100 CALM      29.81F
$$

VAZ100-250800-
MARINE

STATION/POSITION TIME  TEMP    WIND        PRES    WAVE   SWELL
                       AIR SEA DIR/SP/G            HT/PER HT/PER
                 (UTC) (F)     (DEG/KT/KT) (MB)    (FT/S) (FT/S)
CAPE MAY NJ      0648      45  160/  8/ 13 1009.6F
LEWES DE         0648      45  180/  4/  7 1009.6F
OCEAN-CITY-INLET 0648      48  210/  5/  6 1010.5F
WACHAPREAGUE VA  0648      58  220/  4/  5 1009.9F
THOMAS POINT MD  0700   52 44  170/ 12/ 12   N/A
GOOSES REEF MD   0650   49     160/ 12/ 14 1009.6F
COVE POINT MD    0648          190/ 11/ 12 1009.7F
SOLOMONS ISLAND  0648      46  200/ 12/ 14   N/A
BISHOPS HEAD MD  0648      51  170/  8/  9 1009.7F
PINEY POINT MD   0648          130/  8/  8   N/A
POTOMAC MD       0650   50     170/  8/ 10 1008.3F
CAMBRIDGE MD     0648      45  170/  5/  9 1008.6F
LEWISETTA VA     0648      48  200/  9/ 11 1008.7F
RAPPAHANNOCK LGT 0648          160/  9/  9 1010.3F
YORK RVR RNG VA  0648          220/  4/  5 1009.2R
YORKTOWN VA      0648      50  190/  5/  6 1009.3S
JAMESTOWN VA     0650   59     110/  4/  6   N/A
DOMINION TERM VA 0648          290/  1/  2 1009.8R
KIPTOPEKE VA     0648      50  180/  2/  2   N/A
CHES BAY BRIDGE  0648      50  240/  2/  3 1009.6R
CAPE HENRY VA    0648          180/  7/  9   N/A
WILLOUBY STN VA  0648          250/  3/  4 1010.6R
S CRANEY ISL VA  0648          200/  4/  4 1009.6R
CAPE HENRY BUOY  0642      50                N/A     4/10   2/11
OFFSHORE WE BUOY 0651      51                N/A     5/ 9   2/11
64NM E OF VA BCH 0650   57 54   80/  4/  4 1009.3F   7/10   7/10
DUCK PIER NC     0648      49  140/  5/  5 1008.8F
44100 DUCK FRF   0635      51                N/A     6/11   3/11
44056 DUCK FRF   0630      52                N/A     5/10   2/12
OREGON INLET NC  0642      58   90/  4/  5 1009.1F
HATTERAS NC      0648      63   10/  2/  2 1008.6F
DIAMOND SHLS NC  0650   71 76  110/  8/ 12 1008.7F   8/11   8/11
CAPE LOOKOUT NC  0600   65     340/  4/  4 1009.1F
$$




USA.gov is the U.S. government's official web portal to all federal, state and local government web resources and services.